Location: Boleita
(10.4833°N, 66.8167°W)
Time: 02:09:33
(UTC+00:00)

Cosmos 1000 Rocket - Pass Details

Date: 08 November 2025
Orbit: 952 x 991 km, 82.9° (Epoch: 09 December)

Event Time Altitude Azimuth Distance (km) Brightness Sun altitude
Rises 08:45:44 0° 190° (S) 3,660 7.6 -23.3°
Reaches altitude 10° 08:48:15 10° 193° (SSW) 2,718 6.8 -22.7°
Maximum altitude 08:54:25 65° 274° (W) 1,074 4.4 -21.2°
Drops below altitude 10° 09:00:38 10° 355° (N) 2,740 6.7 -19.7°
Sets 09:03:11 0° 358° (N) 3,691 7.4 -19.1°
